Notices

What's New in latest Release from April 7th, 2021:

- Updated Glossary, including Speed of Maximum Gust, and Total Hourly Precipitation

- Updated national and regional climate services offices contacts and prices information

- Addition of station inventory lists for 1981-2010, 1971-2000, and 1961-1990 Normals.

If you haven't already, please take our survey and provide feedback about our website: https://eccc.sondage-survey.ca/f/LanguageSelection.aspx?s=442ca660-fcf1-47c0-95a9-59707d6fd709

Hourly Data Report for December 25, 2019

SAINT JOHN A
NEW BRUNSWICK
Current Station Operator: NAVCAN

45°18'58.000" N
65°53'24.000" W
108.80 m
8104901
71609
YSJ

Download Data

Hourly Data (December 2019)
Hourly Data Report for December 25, 2019
TIME
LST
Temp Definition
°C
Dew Point Definition
°C
Rel Hum Definition
%
Precip. Amount Definition
mm

Wind Dir Definition
10's deg

Wind Spd Definition
km/h
Visibility Definition
km
Stn Press Definition
kPa
Hmdx Definition


Wind Chill Definition


Weather Definition


00:00 -6.7 -9.9 78   32 16 24.1 100.57   -13 LegendNANA
01:00 -6.8 -10.2 77   32 19 24.1 100.61   -14 LegendNANA
02:00 -7.0 -10.4 77   34 20 24.1 100.58   -14 Clear
03:00 -7.5 -10.6 79   34 28 24.1 100.69   -16 LegendNANA
04:00 -8.0 -10.8 80   34 23 24.1 100.71   -16 LegendNANA
05:00 -8.6 -11.1 82   34 18 24.1 100.70   -16 Clear
06:00 -9.0 -11.4 83   35 15 24.1 100.75   -16 LegendNANA
07:00
08:00 -9.4 -11.8 83   35 12 24.1 100.85   -15 Mostly Cloudy
09:00 -8.8 -11.4 81   36 9 24.1 100.87   -13 LegendNANA
10:00 -7.7 -11.5 74   35 10 24.1 100.92   -13 LegendNANA
11:00 -6.7 -11.5 69   1 14 24.1 100.83   -12 Mostly Cloudy
12:00 -5.0 -11.1 63   35 9 24.1 100.77   -9 LegendNANA
13:00 -4.4 -11.2 59   2 13 24.1 100.69   -9 LegendNANA
14:00 -3.8 -11.1 57   36 17 24.1 100.66   -10 Mostly Cloudy
15:00 -3.3 -10.9 56   34 12 24.1 100.68   -8 LegendNANA
16:00 -3.6 -11.4 55   30 12 24.1 100.69   -8 LegendNANA
17:00 -5.0 -10.4 66   31 7 24.1 100.73   -8 Mostly Cloudy
18:00 -6.7 -10.8 73   34 10 24.1 100.71   -11 LegendNANA
19:00 -6.4 -11.8 66   33 17 24.1 100.73   -13 LegendNANA
20:00 -7.1 -12.3 67   33 22 24.1 100.78   -15 Mainly Clear
21:00 -8.2 -12.4 72   34 22 24.1 100.77   -16 LegendNANA
22:00 -8.8 -12.7 73   34 22 24.1 100.79   -17 LegendNANA
23:00 -9.5 -12.9 76   34 20 24.1 100.79   -17 Clear

Notes on Data Quality.

Legend

  • E = Estimated
  • M = Missing
  • NA = Not Available*
  • [empty] = Indicates an unobserved value
Date modified: